Voltar ao catálogo

XM-4

AtivoComunicaçõesGEO
NORAD 29520·PAYLOAD·🇺🇸 United States

Lançado Oct 30, 2006 de Sea Launch Platform

Loading…

TLE

AtualizadoSource: Space-Track

Época: Sep 14, 2026, 14:31 UTC

1 29520U 06049A   26257.60493969 -.00000259  00000-0  00000-0 0  9992
2 29520   3.0813  79.7900 0004588 332.6782 318.3116  0.98817352 52220

Acompanhe XM-4 em tempo real com AllMySat

Download on the App Store